{"data":{"norad_id":54673,"epoch":"2026-05-25T00:36:26.826336Z","epoch_age_seconds":62956,"freshness":"FRESH","line1":"1 54673U 22166AH  26145.02531049  .00000060  00000+0  11336-3 0  9996","line2":"2 54673  87.9254 248.5898 0002549  92.4592 267.6834 13.21826948168394","mean_motion":13.21826948,"eccentricity":0.0002549,"inclination_deg":87.9254,"raan_deg":248.5898,"arg_perigee_deg":92.4592,"mean_anomaly_deg":267.6834,"bstar":0.00011336,"rev_number":16839,"period_min":108.94013033845,"perigee_km":1175.8237601648,"apogee_km":1179.6757512329,"semimajor_km":7555.8867556988,"source":"CELESTRAK","updated_at":"2026-05-25T13:38:22.636697Z"}}